Weather History for Norwood, MA

Change the Weather History Date:

Wednesday, September 25, 2013

  Actual Average Record
Temperature  
Mean Temperature 52 °F -  
Max Temperature 66 °F 68 °F 88 °F (2010)
Min Temperature 39 °F 45 °F 32 °F (1997)
Degree Days  
Heating Degree Days 14    
Growing Degree Days 2 (Base 50)    
Moisture  
Dew Point 43 °F    
Average Humidity 79    
Maximum Humidity 100    
Minimum Humidity 50    
Precipitation  
Precipitation 0.00 in - - ()
Sea Level Pressure  
Sea Level Pressure 29.91 in    
Wind  
Wind Speed 1 mph (ENE)    
Max Wind Speed 9 mph    
Max Gust Speed -    
Visibility 7 miles    
Events Fog    
Averages and records for this station are not official NWS values.
T = Trace of Precipitation, MM = Missing Value Source: NWS Daily Summary

Daily Weather History Graph

Daily Weather History Graph

Search for Another Location

Airport:

Trip Planner

Search our weather history database for the weather conditions in past years. The results will help you decide how hot, cold, wet, or windy it might be!

Date:

Astronomy

Sep. 25, 2013 Rise Set
Actual Time 6:35 AM EDT 6:36 PM EDT
Civil Twilight 6:07 AM EDT 7:04 PM EDT
Nautical Twilight 5:34 AM EDT 7:36 PM EDT
Astronomical Twilight 5:01 AM EDT 8:09 PM EDT
Moon 10:34 PM EDT (9/25) 12:44 PM EDT (9/25)
Length of Visible Light 12h 56m
Length of Day
12h 00m
Waning Gibbous, 64% of the Moon is Illuminated
Sep 25
Waning Gibbous
Sep 26
Last Quarter
Oct 4
New
Oct 11
First Quarter
Oct 18
Full

Hourly Weather History & Observations

Time (EDT) Temp. Dew Point Humidity Pressure Visibility Wind Dir Wind Speed Gust Speed Precip Events Conditions
12:53 AM 45.0 °F 42.1 °F 90% 29.91 in 5.0 mi Calm Calm - N/A   Clear
1:53 AM 42.1 °F 39.9 °F 92% 29.91 in 5.0 mi Calm Calm - N/A   Clear
1:55 AM 42.8 °F 39.2 °F 87% 29.91 in 1.8 mi Calm Calm - N/A   Partly Cloudy
1:58 AM 42.8 °F 41.0 °F 93% 29.91 in 0.8 mi Calm Calm - N/A   Mist
2:13 AM 42.8 °F 39.2 °F 87% 29.91 in 1.5 mi Calm Calm - N/A   Partly Cloudy
2:15 AM 42.8 °F 39.2 °F 87% 29.91 in 4.0 mi Calm Calm - N/A   Partly Cloudy
2:53 AM 39.9 °F 37.9 °F 93% 29.90 in 10.0 mi Calm Calm - N/A   Clear
3:33 AM 41.0 °F 39.2 °F 93% 29.89 in 1.5 mi Calm Calm - N/A   Clear
3:37 AM 39.2 °F 39.2 °F 100% 29.89 in 0.8 mi Calm Calm - N/A   Mist
3:47 AM 41.0 °F 39.2 °F 93% 29.89 in 1.2 mi Calm Calm - N/A   Partly Cloudy
3:53 AM 41.0 °F 39.0 °F 93% 29.89 in 2.5 mi Calm Calm - N/A   Partly Cloudy
4:06 AM 39.2 °F 37.4 °F 93% 29.89 in 1.0 mi Calm Calm - N/A   Mist
4:13 AM 39.2 °F 37.4 °F 93% 29.89 in 0.5 mi Calm Calm - N/A Fog Fog
4:21 AM 39.2 °F 37.4 °F 93% 29.89 in 1.2 mi Calm Calm - N/A   Partly Cloudy
4:25 AM 39.2 °F 37.4 °F 93% 29.89 in 3.0 mi Calm Calm - N/A   Partly Cloudy
4:53 AM 39.0 °F 37.0 °F 93% 29.89 in 10.0 mi Calm Calm - N/A   Clear
5:53 AM 39.9 °F 37.0 °F 89% 29.89 in 10.0 mi Calm Calm - N/A   Clear
6:53 AM 39.0 °F 37.9 °F 96% 29.89 in 10.0 mi Calm Calm - N/A   Clear
7:53 AM 46.9 °F 44.1 °F 90% 29.89 in 10.0 mi Calm Calm - N/A   Clear
8:53 AM 57.9 °F 45.0 °F 62% 29.90 in 10.0 mi NW 9.2 mph - N/A   Clear
9:53 AM 61.0 °F 45.0 °F 56% 29.91 in 10.0 mi North 8.1 mph - N/A   Clear
10:53 AM 63.0 °F 45.0 °F 52% 29.91 in 10.0 mi North 6.9 mph - N/A   Clear
11:53 AM 64.9 °F 46.0 °F 50% 29.91 in 10.0 mi East 5.8 mph - N/A   Clear
12:53 PM 64.9 °F 46.0 °F 50% 29.90 in 10.0 mi East 5.8 mph - N/A   Clear
1:53 PM 64.9 °F 46.0 °F 50% 29.89 in 10.0 mi Calm Calm - N/A   Clear
2:53 PM 64.9 °F 46.9 °F 52% 29.88 in 10.0 mi Calm Calm - N/A   Mostly Cloudy
3:53 PM 64.0 °F 46.9 °F 54% 29.88 in 10.0 mi East 6.9 mph - N/A   Overcast
4:53 PM 63.0 °F 48.0 °F 58% 29.89 in 10.0 mi ENE 5.8 mph - N/A   Overcast
5:53 PM 60.1 °F 46.9 °F 62% 29.91 in 10.0 mi East 4.6 mph - N/A   Overcast
6:53 PM 57.0 °F 46.9 °F 69% 29.92 in 10.0 mi East 4.6 mph - N/A   Overcast
7:53 PM 55.9 °F 46.0 °F 69% 29.94 in 10.0 mi ENE 3.5 mph - N/A   Overcast
8:53 PM 54.0 °F 48.0 °F 80% 29.96 in 10.0 mi Calm Calm - N/A   Overcast
9:53 PM 54.0 °F 48.9 °F 83% 29.97 in 10.0 mi Calm Calm - N/A   Overcast
10:53 PM 55.0 °F 50.0 °F 83% 29.98 in 10.0 mi Calm Calm - N/A   Overcast
11:53 PM 54.0 °F 50.0 °F 86% 29.98 in 10.0 mi Calm Calm - N/A   Overcast